Location: Caltech
(34.1382°N, 118.1253°W)
Time: 16:37:41
(UTC-08:00)

Iridium 65 - Visible Passes

Search period start: 13 December 2017 00:00
Search period end: 23 December 2017 00:00
Orbit: 776 x 779 km, 86.4° (Epoch: 13 December)

Date Brightness Start Highest point End Pass type
(mag) Time Alt. Az. Time Alt. Az. Time Alt. Az.
13 Dec 8.3 03:19:55 10° SE 03:20:37 12° ESE 03:20:37 12° ESE visible
13 Dec 7.0 04:59:04 10° SSW 05:00:56 21° SW 05:00:56 21° SW visible
13 Dec 8.3 17:14:44 10° NW 17:17:53 16° W 17:21:02 10° WSW visible
14 Dec 7.7 04:25:07 10° S 04:25:44 14° S 04:25:44 14° S visible
16 Dec 8.7 17:16:46 10° WNW 17:17:46 11° WNW 17:18:46 10° W visible
